Location: Delligsen
(51.9424°N, 9.8018°E)
Time: 23:15:25
(UTC+00:00)

Daily predictions for brighter satellites

Satellite Brightness Start Highest point End
(mag) Time Altitude Azimuth Time Altitude Azimuth Time Altitude Azimuth
COSMO-SKYMED 1 2.7 17:20:18 10° NNE 17:24:37 56° E 17:28:53 10° S
Cosmos 2263 Rocket 2.3 17:18:55 10° NNW 17:24:40 89° ENE 17:30:23 10° SSE
Cosmos 1975 3.6 17:21:56 10° SSW 17:25:56 59° WNW 17:29:56 10° N
Spot 1 4.5 17:26:08 10° NNE 17:30:04 37° E 17:33:53 10° SSE
ASTEX 1 3.5 17:25:31 10° NNE 17:30:30 62° E 17:35:26 10° S
Cosmos 1437 Rocket 4.0 17:28:39 10° SE 17:31:18 19° E 17:33:56 10° NE
HJ-1C 3.8 17:30:27 10° SE 17:33:19 34° ENE 17:36:11 10° N
CZ-4C R/B 3.9 17:29:32 10° N 17:33:50 70° WNW 17:37:54 10° SSW
Cosmos 1741 Rocket 4.1 17:28:47 10° S 17:33:58 61° ESE 17:39:10 10° NNE
Cosmos 1626 4.0 17:32:09 10° NNW 17:35:29 34° W 17:38:47 10° SSW
Cosmos 1814 Rocket 4.0 17:30:54 10° NNW 17:36:11 70° ENE 17:41:21 10° SSE
USA 267 3.6 17:30:09 10° SE 17:36:40 67° SW 17:43:13 10° WNW
SL-4 R/B 2.9 17:32:53 10° W 17:37:08 50° SSW 17:41:37 10° SE
Cosmos 2084 Rocket 3.5 17:35:56 10° NW 17:39:39 49° NE 17:43:23 10° ESE
Cosmos 2208 Rocket 4.4 17:35:38 10° NNW 17:40:50 47° ENE 17:46:04 10° SE
Cosmos 2227 4.2 17:36:20 10° NNW 17:41:59 77° ENE 17:47:37 10° SE
Cosmos 1805 3.2 17:38:47 10° S 17:42:39 81° E 17:46:34 10° NNE
Cosmos 1242 Rocket 2.7 17:40:23 10° SSW 17:43:56 74° WNW 17:47:28 10° N
IRIDIUM 114 4.5 17:40:41 10° SSE 17:45:42 50° E 17:50:45 10° NNE
Okean-O 3.9 17:42:56 10° ESE 17:46:20 22° ENE 17:49:46 10° N
ISS -1.3 17:44:20 10° W 17:46:46 19° SW 17:49:12 10° S
CZ-4 R/B 1.7 17:44:54 10° SE 17:48:55 49° ENE 17:52:58 10° N
Cosmos 1697 Rocket 3.5 17:43:37 10° SW 17:49:08 55° NW 17:54:42 10° NNE
BREEZE M DEB (TANK) 4.3 17:46:46 10° SSW 17:50:54 17° SSE 17:53:03 11° ESE
SL-14 R/B 3.7 17:48:54 10° NNW 17:52:51 66° W 17:56:48 10° S
Cosmos 1908 Rocket 3.9 17:50:17 10° SSE 17:54:21 42° E 17:58:27 10° NNE
OBJECT-B 1.7 17:54:14 18° E 17:54:42 19° ENE 17:56:38 10° NNE
IRIDIUM 103 4.3 17:49:42 10° SSE 17:54:49 60° E 17:59:58 10° N
Meteor 2-21 4.4 17:49:01 10° S 17:54:59 67° E 18:01:00 10° NNE
MOS 1-B 4.5 17:49:14 10° SSE 17:55:03 85° WSW 18:00:55 10° NNW
Cosmos 1733 3.6 17:52:27 10° SSW 17:56:11 65° WNW 17:59:55 10° N
Cosmos 2360 Rocket 3.5 17:53:13 10° SE 17:56:40 17° E 18:00:06 10° ENE
Cosmos 1809 Rocket 4.4 17:53:33 10° S 17:59:37 85° E 18:05:46 10° NNE
Cosmos 1674 Rocket 3.9 17:57:40 10° NNW 18:02:04 69° W 18:06:28 10° S
Cosmos 1766 3.2 17:58:37 10° S 18:02:30 67° E 18:06:27 10° NNE
Cosmos 1782 Rocket 4.3 17:58:53 10° SSE 18:02:38 29° E 18:06:25 10° NNE
Meteor 2-10 4.2 17:58:33 10° SSW 18:04:10 87° WNW 18:09:39 10° NNE
Cosmos 1025 Rocket 3.7 18:00:46 10° N 18:04:43 34° ENE 18:07:56 14° SE
YAOGAN 1 2.6 18:02:52 10° SSE 18:07:12 83° WSW 18:11:33 10° NNW
ATLAS 2AS CENTAUR R/B 4.1 18:00:54 10° WNW 18:07:34 33° N 18:13:53 10° ENE
Cosmos 2026 Rocket 4.4 18:03:15 10° SSE 18:08:45 38° E 18:14:16 10° NNE
Cosmos 968 Rocket 3.7 18:04:16 10° S 18:09:15 46° ESE 18:14:15 10° NE
Okean O Rocket 1.6 18:06:39 10° SSE 18:11:02 90° NE 18:15:27 10° NNW
SKYMED 2 4.5 18:08:27 10° N 18:12:43 53° WNW 18:16:56 10° SW
IRIDIUM 106 4.3 18:07:52 10° S 18:13:05 82° E 18:18:20 10° N
Cosmos 2084 4.3 18:10:01 10° WSW 18:13:39 43° NW 18:17:21 10° NE
Lacrosse 4 Rocket 2.5 18:10:52 10° SSE 18:13:56 22° ESE 18:13:56 22° ESE
Meteor 2-5 Rocket 3.6 18:08:53 10° N 18:14:26 68° ENE 18:19:57 10° SSE
Nadezhda 4 Rocket 4.0 18:10:13 10° S 18:16:32 79° E 18:22:51 10° NNE
Meteor 1-15 Rocket 4.1 18:12:45 10° S 18:18:14 64° E 18:23:45 10° NNE
CSL-04 Rocket 3.9 18:13:27 11° SE 18:18:19 49° ENE 18:23:32 10° N
NOSS 3-4 (A) 4.4 18:13:44 10° NW 18:19:53 42° NNE 18:24:38 19° E
NOSS 3-4 (C) 4.4 18:13:51 10° NW 18:19:59 42° NNE 18:24:44 19° E
Cosmos 2285 Rocket 4.3 18:14:40 10° NNW 18:21:00 70° WSW 18:27:20 10° SSE
USA 186 2.1 18:22:42 28° SE 18:24:04 46° ENE 18:27:20 10° N
Cosmos 1726 2.9 18:21:09 10° SSW 18:24:43 53° WNW 18:28:19 10° N
Cosmos 2322 Rocket 2.6 18:19:55 10° S 18:25:08 38° ESE 18:30:23 10° NE
Landsat 7 4.3 18:25:23 24° ESE 18:27:38 39° ENE 18:32:00 10° N
Cosmos 1470 2.7 18:25:34 10° S 18:29:19 55° E 18:33:05 10° NNE
CZ-4B R/B 4.0 18:24:23 10° S 18:29:40 54° W 18:35:06 10° NNW
Cosmos 1975 Rocket 3.0 18:25:29 10° N 18:29:53 60° ENE 18:33:08 17° SSE
ARGOS Delta rocket 4.4 18:24:45 10° N 18:30:02 69° WNW 18:35:01 10° SSW
deb Chang Zheng 4 4.4 18:29:32 27° E 18:30:11 29° ENE 18:33:47 10° N
Cosmos 1980 Rocket 3.0 18:25:45 10° SW 18:31:14 52° NW 18:36:45 10° NNE
Ariane Rocket 4.3 18:36:14 21° ENE 18:36:54 22° NE 18:40:43 10° N
Cosmos 1758 4.4 18:40:19 27° ENE 18:40:19 27° ENE 18:42:46 10° NNE
CRYOSAT 2 4.3 18:34:22 10° SSE 18:39:11 62° E 18:44:02 10° N
Cosmos 2292 Rocket 3.4 18:34:35 10° S 18:39:32 88° E 18:43:19 10° N
USA 215 3.3 18:36:54 13° ENE 18:42:47 79° NNW 18:49:19 10° WSW
IRS-1C Rocket 4.0 18:43:42 21° SSE 18:47:12 69° ENE 18:52:27 10° NNW
Cosmos 1844 Rocket 2.7 18:43:46 10° NNW 18:49:29 90° WSW 18:52:59 25° SSE
Landsat 5 3.5 18:50:07 10° NNE 18:54:37 66° ESE 18:59:01 10° S
Cosmos 2278 4.3 18:49:00 10° SW 18:54:37 59° NW 19:00:15 10° NNE
SL-16 R/B 2.1 18:49:37 10° SSW 18:55:17 81° ESE 19:01:00 10° NNE
Cosmos 1943 Rocket 4.2 18:52:29 10° N 18:55:25 14° NNE 18:57:29 12° NE
Cosmos 1092 Rocket 4.0 18:51:44 10° S 18:58:02 90° S 19:04:21 10° N
Resurs 01 Rocket 2.1 19:01:20 41° ENE 19:01:20 41° ENE 19:05:26 10° N
Terra 3.9 19:03:49 13° NE 19:03:49 13° NE 19:05:18 10° NNE
SJ-6B 2.9 19:02:07 34° S 19:03:37 68° WSW 19:07:26 10° NNW
Cosmos 2278 Rocket 3.3 18:59:50 10° NNW 19:04:40 27° NE 19:05:41 26° ENE
H-2A R/B 2.7 19:07:12 49° NE 19:07:12 49° NE 19:10:27 10° N
Cosmos 1437 Rocket 3.9 19:03:35 10° SW 19:07:10 42° WNW 19:10:44 10° N
Gbstr 26 Del rocket 4.4 19:00:35 10° WSW 19:08:22 84° SSE 19:12:38 32° E
Meteor 1-24 Rocket 4.3 19:04:31 10° NNW 19:09:41 53° W 19:14:52 10° S
Cosmos 1703 3.9 19:07:18 10° N 19:10:10 42° NNE 19:10:10 42° NNE
Resurs 1-3 3.5 19:11:26 46° S 19:12:44 83° WSW 19:17:09 10° NNW
SL-4 R/B 4.5 19:13:02 10° W 19:15:59 17° SW 19:17:52 14° SSW
Cosmos 921 Rocket 3.7 19:11:47 10° NNW 19:15:35 41° NE 19:15:35 41° NE
IRS-1A Rocket 4.4 19:15:25 48° ESE 19:16:31 56° ENE 19:22:11 10° N
MetOp-A 3.4 19:17:19 63° NNE 19:17:19 63° NNE 19:20:52 10° NNW
Cosmos 783 Rocket 4.4 19:16:56 10° NNW 19:22:13 69° ENE 19:22:48 63° ESE
Okean-O 3.2 19:20:30 30° SSW 19:22:29 56° W 19:26:51 10° NNW
Cosmos 1844 4.0 19:18:27 10° NW 19:23:56 62° WSW 19:26:12 35° S
CZ-4 R/B 3.9 19:20:53 10° SW 19:24:06 21° W 19:27:20 10° NW
JB-3 4.5 19:20:16 10° NNE 19:23:49 67° N 19:23:49 67° N
OBJECT-B 3.1 19:24:56 18° W 19:24:56 18° W 19:26:27 10° NW
Cosmos 1486 Rocket 3.9 19:19:20 10° SSW 19:24:38 76° ESE 19:30:00 10° NNE
IGS 5A 4.4 19:24:37 27° SSW 19:26:26 45° W 19:30:25 10° NNW
Cosmos 2266 Rocket 4.3 19:26:59 46° E 19:26:59 46° E 19:32:41 10° NNE
Cosmos 1655 Rocket 4.5 19:28:46 41° ENE 19:28:46 41° ENE 19:33:51 10° NNE
DNEPR-1 R/B 3.8 19:24:04 10° SW 19:28:52 77° SE 19:30:36 45° NE
S3M 3.9 19:22:38 10° N 19:28:54 69° ENE 19:30:10 55° SE
Cosmos 773 Rocket 3.9 19:25:05 10° NNW 19:30:26 83° ENE 19:31:00 71° SE
Spot 2 4.2 19:31:04 64° N 19:31:04 64° N 19:34:54 10° NNW
Meteor 1-21 Rocket 4.0 19:25:31 10° N 19:31:04 70° ENE 19:31:34 66° ESE
Cosmos 2333 Rocket 4.3 19:36:34 13° NE 19:36:34 13° NE 19:37:09 10° NE
Cosmos 1300 Rocket 3.8 19:30:15 37° SSW 19:31:52 67° WNW 19:36:15 10° N
SPOT 5 4.3 19:36:14 25° NNE 19:36:14 25° NNE 19:38:47 10° N
Cosmos 2360 Rocket 2.0 19:34:10 10° SSW 19:39:49 85° ESE 19:45:30 10° NNE
Cosmos 158 Rocket 3.9 19:40:27 10° NNW 19:44:48 69° N 19:44:48 69° N
Cosmos 883 Rocket 4.4 19:41:03 10° N 19:47:24 67° ENE 19:47:37 66° E
Lacrosse 4 Rocket 3.0 19:48:13 10° SW 19:50:17 28° WSW 19:50:17 28° WSW
ATLAS 2AS CENTAUR R/B 3.4 19:53:19 10° NW 20:00:16 43° NNE 20:01:35 39° NE
MOS 1 4.5 20:01:33 61° SW 20:02:12 66° WSW 20:07:53 10° NNW
ERS-1 Rocket 4.2 20:07:13 32° NNE 20:07:13 32° NNE 20:10:11 10° N
SPOT 1/Viking Rocket 3.9 20:07:54 58° W 20:07:54 58° W 20:12:57 10° NNW
Cosmos 2322 Rocket 3.1 20:03:36 10° SW 20:09:06 48° NW 20:14:40 10° NNE
NOSS 3-4 (A) 3.7 20:04:38 10° NW 20:11:27 83° SW 20:12:04 76° SSE
NOSS 3-4 (C) 3.7 20:04:44 10° NW 20:11:33 84° SW 20:12:10 76° SSE
SPOT 3 Rocket 4.3 20:15:04 47° N 20:15:04 47° N 20:18:45 10° NNW
Ariane Rocket 3.6 20:16:26 55° NW 20:16:26 55° NW 20:20:30 10° NNW
USA 215 3.6 20:24:15 50° NE 20:25:32 58° N 20:31:55 10° WNW
Aureole 1 Rocket 4.2 20:19:52 10° SW 20:26:59 66° WNW 20:32:32 10° NNE
USA 281 3.3 20:27:40 64° NNE 20:27:40 64° NNE 20:33:38 10° NNW
Resurs 01 Rocket 3.7 20:38:52 25° WNW 20:38:52 25° WNW 20:41:41 10° NW
Cosmos 2315 Rocket 4.3 20:32:02 10° NNW 20:37:56 65° WNW 20:37:56 65° WNW
Terra 3.7 20:42:43 25° N 20:42:43 25° N 20:44:43 10° N
SL-16 R/B 4.1 20:35:16 10° W 20:40:02 27° NW 20:44:52 10° NNE
Cosmos 1943 Rocket 3.6 20:35:37 10° NNW 20:38:59 31° N 20:38:59 31° N
Cosmos 2278 Rocket 3.2 20:43:41 10° NNW 20:47:32 44° NW 20:47:32 44° NW
Cosmos 2369 Rocket 4.0 20:55:28 10° NNW 20:58:48 24° NNE 20:58:48 24° NNE
Cosmos 2219 Rocket 4.4 21:05:13 17° NNE 21:05:13 17° NNE 21:06:29 10° NNE
Cosmos 2333 Rocket 4.0 21:18:31 27° N 21:18:31 27° N 21:21:27 10° NNE
Cosmos 2360 Rocket 4.1 21:19:50 10° W 21:24:31 26° NW 21:29:14 10° NNE
ATLAS 2AS CENTAUR R/B 3.8 21:44:38 10° NW 21:49:00 40° NW 21:49:00 40° NW
SL-16 R/B 4.5 23:57:33 20° N 23:57:33 20° N 23:59:30 10° NNE
